• In Belarus
  • List of Countries
  • For 7 days
  • Water Temperature
  • Weather Map
  • Weather Widgets
  • user-avatar
    Login

    Hourly Weather Nizhnee Inho

    Today, 12 November, Tuesday

    Time Temperature Precipitation Wind Pressure Humidity
    00:00 +13°C° 0 mm 1 mps 715 mmHg 33%
    01:00 +13°C° 0 mm 1 mps 715 mmHg 33%
    02:00 +12°C° 0 mm 1 mps 715 mmHg 33%
    03:00 +12°C° 0 mm 2 mps 716 mmHg 34%
    04:00 +12°C° 0 mm 1 mps 716 mmHg 33%
    05:00 +12°C° 0 mm 1 mps 716 mmHg 33%
    06:00 +12°C° 0 mm 1 mps 716 mmHg 32%
    07:00 +13°C° 0 mm 1 mps 716 mmHg 31%
    08:00 +14°C° 0 mm 1 mps 717 mmHg 30%
    09:00 +15°C° 0 mm 0 mps 717 mmHg 29%
    10:00 +16°C° 0 mm 0 mps 717 mmHg 27%
    11:00 +19°C° 0 mm 1 mps 717 mmHg 26%
    12:00 +20°C° 0 mm 1 mps 717 mmHg 24%
    13:00 +20°C° 0 mm 1 mps 716 mmHg 27%
    14:00 +20°C° 0 mm 1 mps 716 mmHg 29%
    15:00 +19°C° 0 mm 1 mps 717 mmHg 32%
    16:00 +18°C° 0 mm 1 mps 717 mmHg 36%
    17:00 +15°C° 0 mm 1 mps 716 mmHg 41%
    18:00 +13°C° 0 mm 0 mps 716 mmHg 45%
    19:00 +12°C° 0 mm 0 mps 716 mmHg 45%
    20:00 +12°C° 0 mm 0 mps 716 mmHg 45%
    21:00 +12°C° 0 mm 0 mps 716 mmHg 45%
    22:00 +11°C° 0 mm 0 mps 716 mmHg 44%
    23:00 +12°C° 0 mm 1 mps 716 mmHg 44%

    Tomorrow, 13 November, Wednesday

    Time Temperature Precipitation Wind Pressure Humidity
    00:00 +12°C° 0 mm 1 mps 716 mmHg 43%
    01:00 +12°C° 0 mm 1 mps 716 mmHg 43%
    02:00 +12°C° 0 mm 1 mps 716 mmHg 42%
    03:00 +11°C° 0 mm 1 mps 716 mmHg 41%
    04:00 +11°C° 0 mm 1 mps 716 mmHg 41%
    05:00 +11°C° 0 mm 1 mps 716 mmHg 41%
    06:00 +11°C° 0 mm 1 mps 716 mmHg 41%
    07:00 +11°C° 0 mm 0 mps 716 mmHg 39%
    08:00 +12°C° 0 mm 0 mps 717 mmHg 38%
    09:00 +13°C° 0 mm 0 mps 717 mmHg 36%
    10:00 +14°C° 0 mm 0 mps 717 mmHg 36%
    11:00 +16°C° 0 mm 1 mps 717 mmHg 35%
    12:00 +16°C° 0 mm 1 mps 717 mmHg 35%
    13:00 +16°C° 0 mm 1 mps 716 mmHg 37%
    14:00 +16°C° 0 mm 1 mps 716 mmHg 39%
    15:00 +16°C° 0 mm 1 mps 716 mmHg 41%
    16:00 +15°C° 0 mm 1 mps 716 mmHg 47%
    17:00 +13°C° 0 mm 1 mps 716 mmHg 53%
    18:00 +11°C° 0 mm 0 mps 716 mmHg 59%
    19:00 +10°C° 0 mm 0 mps 716 mmHg 59%
    20:00 +10°C° 0 mm 0 mps 716 mmHg 58%
    21:00 +10°C° 0 mm 0 mps 716 mmHg 58%
    22:00 +9°C° 0 mm 0 mps 716 mmHg 57%
    23:00 +9°C° 0 mm 0 mps 716 mmHg 56%

    Day after tomorrow, 14 November, Thursday

    Time Temperature Precipitation Wind Pressure Humidity
    00:00 +10°C° 0 mm 1 mps 716 mmHg 55%
    01:00 +10°C° 0 mm 1 mps 716 mmHg 54%
    02:00 +9°C° 0 mm 0 mps 716 mmHg 53%
    03:00 +8°C° 0 mm 0 mps 716 mmHg 52%
    04:00 +8°C° 0 mm 0 mps 716 mmHg 50%
    05:00 +8°C° 0 mm 0 mps 716 mmHg 49%
    06:00 +8°C° 0 mm 0 mps 716 mmHg 47%
    07:00 +9°C° 0 mm 0 mps 716 mmHg 45%
    08:00 +10°C° 0 mm 0 mps 717 mmHg 43%
    09:00 +11°C° 0 mm 0 mps 717 mmHg 41%
    10:00 +13°C° 0 mm 1 mps 717 mmHg 41%
    11:00 +14°C° 0 mm 1 mps 717 mmHg 40%
    12:00 +15°C° 0 mm 1 mps 717 mmHg 40%
    13:00 +15°C° 0 mm 1 mps 717 mmHg 46%
    14:00 +14°C° 0 mm 1 mps 717 mmHg 53%
    15:00 +14°C° 0 mm 1 mps 716 mmHg 59%
    16:00 +12°C° 0 mm 1 mps 716 mmHg 65%
    17:00 +11°C° 0 mm 1 mps 717 mmHg 71%
    18:00 +9°C° 0 mm 1 mps 717 mmHg 77%
    19:00 +9°C° 0 mm 1 mps 717 mmHg 77%
    20:00 +8°C° 0 mm 0 mps 717 mmHg 77%
    21:00 +7°C° 0 mm 0 mps 717 mmHg 76%
    22:00 +7°C° 0 mm 0 mps 717 mmHg 75%
    23:00 +7°C° 0 mm 0 mps 717 mmHg 73%

    15 November, Friday

    Time Temperature Precipitation Wind Pressure Humidity
    00:00 +7°C° 0 mm 0 mps 717 mmHg 71%
    01:00 +7°C° 0 mm 0 mps 717 mmHg 71%
    02:00 +7°C° 0 mm 0 mps 717 mmHg 71%
    03:00 +7°C° 0 mm 1 mps 717 mmHg 71%
    04:00 +7°C° 0 mm 1 mps 717 mmHg 72%
    05:00 +7°C° 0 mm 1 mps 717 mmHg 73%
    06:00 +7°C° 0 mm 1 mps 717 mmHg 74%
    07:00 +7°C° 0 mm 1 mps 717 mmHg 72%
    08:00 +8°C° 0 mm 1 mps 718 mmHg 70%
    09:00 +8°C° 0 mm 1 mps 718 mmHg 68%
    10:00 +8°C° 0 mm 2 mps 718 mmHg 63%
    11:00 +9°C° 0 mm 2 mps 718 mmHg 58%
    12:00 +10°C° 0 mm 2 mps 718 mmHg 53%
    13:00 +10°C° 0 mm 2 mps 718 mmHg 55%
    14:00 +10°C° 0 mm 2 mps 718 mmHg 57%
    15:00 +9°C° 0 mm 2 mps 718 mmHg 59%
    16:00 +8°C° 0 mm 2 mps 718 mmHg 68%
    17:00 +7°C° 0 mm 1 mps 718 mmHg 77%
    18:00 +6°C° 0 mm 1 mps 718 mmHg 86%
    19:00 +6°C° 0 mm 1 mps 718 mmHg 86%
    20:00 +6°C° 0 mm 1 mps 718 mmHg 87%
    21:00 +5°C° 0 mm 1 mps 718 mmHg 87%
    22:00 +5°C° 0 mm 1 mps 718 mmHg 86%
    23:00 +5°C° 0 mm 1 mps 718 mmHg 86%

    16 November, Saturday

    Time Temperature Precipitation Wind Pressure Humidity
    00:00 +5°C° 0 mm 1 mps 718 mmHg 85%
    01:00 +5°C° 0 mm 1 mps 718 mmHg 84%
    02:00 +5°C° 0 mm 1 mps 718 mmHg 84%
    03:00 +5°C° 0 mm 1 mps 718 mmHg 83%
    04:00 +4°C° 0 mm 1 mps 718 mmHg 82%
    05:00 +4°C° 0 mm 1 mps 718 mmHg 82%
    06:00 +4°C° 0 mm 1 mps 718 mmHg 81%
    07:00 +5°C° 0 mm 1 mps 718 mmHg 76%
    08:00 +6°C° 0 mm 1 mps 719 mmHg 70%
    09:00 +6°C° 0 mm 2 mps 719 mmHg 65%
    10:00 +7°C° 0 mm 2 mps 719 mmHg 59%
    11:00 +8°C° 0 mm 2 mps 719 mmHg 52%
    12:00 +9°C° 0 mm 3 mps 719 mmHg 46%
    13:00 +9°C° 0 mm 2 mps 719 mmHg 47%
    14:00 +8°C° 0 mm 2 mps 719 mmHg 48%
    15:00 +8°C° 0 mm 2 mps 719 mmHg 49%
    16:00 +7°C° 0 mm 2 mps 719 mmHg 56%
    17:00 +6°C° 0 mm 2 mps 719 mmHg 64%
    18:00 +5°C° 0 mm 2 mps 719 mmHg 71%
    19:00 +6°C° 0 mm 1 mps 719 mmHg 68%
    20:00 +6°C° 0 mm 1 mps 719 mmHg 65%
    21:00 +6°C° 0 mm 1 mps 719 mmHg 62%
    22:00 +6°C° 0 mm 1 mps 719 mmHg 58%
    23:00 +6°C° 0 mm 1 mps 719 mmHg 54%

    17 November, Sunday

    Time Temperature Precipitation Wind Pressure Humidity
    00:00 +5°C° 0 mm 2 mps 719 mmHg 49%
    01:00 +5°C° 0 mm 2 mps 719 mmHg 47%
    02:00 +5°C° 0 mm 2 mps 719 mmHg 45%
    03:00 +5°C° 0 mm 2 mps 718 mmHg 43%
    04:00 +6°C° 0 mm 1 mps 718 mmHg 43%
    05:00 +6°C° 0 mm 1 mps 718 mmHg 42%
    06:00 +6°C° 0 mm 1 mps 718 mmHg 42%
    07:00 +7°C° 0 mm 1 mps 719 mmHg 39%
    08:00 +8°C° 0 mm 1 mps 719 mmHg 36%
    09:00 +10°C° 0 mm 1 mps 719 mmHg 33%
    10:00 +11°C° 0 mm 1 mps 719 mmHg 33%
    11:00 +12°C° 0 mm 2 mps 719 mmHg 33%
    12:00 +13°C° 0 mm 2 mps 719 mmHg 33%
    13:00 +13°C° 0 mm 2 mps 719 mmHg 37%
    14:00 +13°C° 0 mm 2 mps 719 mmHg 42%
    15:00 +12°C° 0 mm 2 mps 718 mmHg 47%
    16:00 +11°C° 0 mm 1 mps 718 mmHg 54%
    17:00 +9°C° 0 mm 1 mps 718 mmHg 62%
    18:00 +8°C° 0 mm 1 mps 718 mmHg 69%
    19:00 +8°C° 0 mm 1 mps 718 mmHg 68%
    20:00 +8°C° 0 mm 1 mps 718 mmHg 67%
    21:00 +8°C° 0 mm 1 mps 719 mmHg 66%
    22:00 +7°C° 0 mm 1 mps 718 mmHg 64%
    23:00 +7°C° 0 mm 1 mps 718 mmHg 62%
    Show more